"Pseudo-MPEC" for C3TETE1

Created 2023 Sep 27 1:22:03 UT using Find_Orb

Click here for an explanation of pseudo-MPECs

 
 Astrometry: 
     C3TETE1*1C2023 09 18.30608601 30 03.827-00 12 09.72   ~9ICb       VNEOCP703
     C3TETE1 1C2023 09 18.31143501 30 03.546-00 12 14.22   ~9ICb 18.66GVNEOCP703
     C3TETE1 1C2023 09 18.31678701 30 03.211-00 12 18.65   ~9ICb 18.71GVNEOCP703
     C3TETE1 1C2023 09 18.32214201 30 02.941-00 12 23.83   ~9ICb       VNEOCP703
     C3TETE1 KB2023 09 18]--HypMgoh/\kctqhSLSyPG\vAstrometryk'7+uXh(redacted;M45
     C3TETE1 KB2023 09 18fk'6rH,:1B+u=cpclick(pIY=`Ubglnb%\kE'L[yhereuA9`E[[!M45
     C3TETE1 KB2023 09 19xQ*nU=1;rt(?hEx$6w`for2_k.SRLR3-Sexplanation28]ZmlbMM45

Station data:
(703) Catalina Sky Survey  (N32.417003 W110.732640)  US/Arizona.  Observer E.
   J. Christensen. 0.68 m Schmidt + 10K CCD.
(M45) Starhopper Observatory, Sfantu Gheorghe  (N45.865582 E25.768900)
   Romania.  Observer F. Ursache. 0.41-m f/7.5 reflector + CMO.

Orbital elements:  C3TETE1
   Perihelion 2023 Feb 23.75133 +/- 162 TT = 18:01:55 (JD 2459999.25133)
Epoch 2023 Sep 19.0 TT = JDT 2460206.5   Earth MOID: 0.3794      AutoNEOCP
M 106.65578253 +/- 80               (J2000 ecliptic)
n   0.51462711 +/- 0.211            Peri.   96.42105 +/- 44
a   1.54220086 +/- 0.421            Node   150.61154 +/- 33
e   0.1110470 +/- 0.164             Incl.    6.35914 +/- 5.7
P   1.92/699.52d           H 18.38  G  0.15   U 11.7  SR
q 1.37094397 +/- 0.204    Q 1.71345774 +/- 1.05
From 7 observations 2023 Sept. 18-19 (16.8 hr); mean residual 0".47
Residuals in arcseconds: 
230918 703  .07+  .10-    230918 703  .01+  .23-    230919 M45  .80-  1.0+    
230918 703  .26+  .06+    230918 M45  .44+  .82-    
230918 703  .36-  .29+    230918 M45  .38+  .23-    

Ephemerides (geocentric):
Date (UTC) HH   RA             Dec           delta  r     elong  mag " sig PA
---- --------  ------------   ------------  ------ ------ -----  --- --------
2023 09 27 01  01 21 18.159   -02 21 31.67  .63442 1.6186 162.4 19.1 1120 126
2023 09 27 02  01 21 15.307   -02 22 08.82  .63439 1.6186 162.4 19.1 1133 126
2023 09 27 03  01 21 12.452   -02 22 45.96  .63437 1.6187 162.5 19.1 1146 126
2023 09 27 04  01 21 09.594   -02 23 23.10  .63435 1.6187 162.5 19.1 1158 126
2023 09 27 05  01 21 06.734   -02 24 00.23  .63433 1.6188 162.5 19.1 1171 126
2023 09 27 06  01 21 03.871   -02 24 37.35  .63431 1.6189 162.6 19.1 1184 126
2023 09 27 07  01 21 01.005   -02 25 14.47  .63429 1.6189 162.6 19.1 1197 126
2023 09 27 08  01 20 58.137   -02 25 51.58  .63427 1.6190 162.7 19.1 1210 126
2023 09 27 09  01 20 55.266   -02 26 28.69  .63425 1.6190 162.7 19.1 1223 126
2023 09 27 10  01 20 52.393   -02 27 05.78  .63423 1.6191 162.7 19.1 1237 126
2023 09 27 11  01 20 49.517   -02 27 42.88  .63421 1.6191 162.8 19.1 1250 126
2023 09 27 12  01 20 46.638   -02 28 19.96  .63419 1.6192 162.8 19.1 1263 126
2023 09 27 13  01 20 43.757   -02 28 57.04  .63417 1.6192 162.9 19.1 1277 126
2023 09 27 14  01 20 40.873   -02 29 34.11  .63415 1.6193 162.9 19.1 1291 126
2023 09 27 15  01 20 37.986   -02 30 11.17  .63413 1.6193 163.0 19.1 1304 126
2023 09 27 16  01 20 35.097   -02 30 48.23  .63412 1.6194 163.0 19.1 1318 126
2023 09 27 17  01 20 32.205   -02 31 25.28  .63410 1.6195 163.0 19.1 1332 126
2023 09 27 18  01 20 29.311   -02 32 02.32  .63408 1.6195 163.1 19.1 1346 126
2023 09 27 19  01 20 26.414   -02 32 39.35  .63406 1.6196 163.1 19.1 1360 126
2023 09 27 20  01 20 23.515   -02 33 16.38  .63405 1.6196 163.2 19.1 1374 126
2023 09 27 21  01 20 20.613   -02 33 53.40  .63403 1.6197 163.2 19.1 1388 126
2023 09 27 22  01 20 17.709   -02 34 30.41  .63402 1.6197 163.2 19.1 1403 126
2023 09 27 23  01 20 14.802   -02 35 07.41  .63400 1.6198 163.3 19.1 1417 126
2023 09 28 00  01 20 11.892   -02 35 44.40  .63399 1.6198 163.3 19.1 1431 126
2023 09 28 01  01 20 08.981   -02 36 21.39  .63397 1.6199 163.4 19.1 1446 126
2023 09 28 02  01 20 06.066   -02 36 58.37  .63396 1.6199 163.4 19.1 1461 126
2023 09 28 03  01 20 03.149   -02 37 35.34  .63394 1.6200 163.5 19.1 1475 126
2023 09 28 04  01 20 00.230   -02 38 12.30  .63393 1.6201 163.5 19.1 1490 126
2023 09 28 05  01 19 57.308   -02 38 49.25  .63392 1.6201 163.5 19.1 1505 126
2023 09 28 06  01 19 54.384   -02 39 26.20  .63390 1.6202 163.6 19.1 1520 126
2023 09 28 07  01 19 51.457   -02 40 03.13  .63389 1.6202 163.6 19.1 1535 126
2023 09 28 08  01 19 48.528   -02 40 40.06  .63388 1.6203 163.7 19.1 1551 126
2023 09 28 09  01 19 45.597   -02 41 16.98  .63387 1.6203 163.7 19.1 1566 126
2023 09 28 10  01 19 42.663   -02 41 53.89  .63386 1.6204 163.7 19.1 1581 126
2023 09 28 11  01 19 39.726   -02 42 30.79  .63384 1.6204 163.8 19.1 1597 126
2023 09 28 12  01 19 36.788   -02 43 07.68  .63383 1.6205 163.8 19.1 1612 126
2023 09 28 13  01 19 33.846   -02 43 44.56  .63382 1.6205 163.9 19.1 1628 126
2023 09 28 14  01 19 30.903   -02 44 21.43  .63381 1.6206 163.9 19.1 1644 126
2023 09 28 15  01 19 27.957   -02 44 58.30  .63380 1.6207 163.9 19.1 1660 126
2023 09 28 16  01 19 25.009   -02 45 35.15  .63379 1.6207 164.0 19.1 1676 126
2023 09 28 17  01 19 22.058   -02 46 11.99  .63378 1.6208 164.0 19.1 1692 126
2023 09 28 18  01 19 19.105   -02 46 48.83  .63378 1.6208 164.1 19.1 1708 126
2023 09 28 19  01 19 16.150   -02 47 25.65  .63377 1.6209 164.1 19.1 1724 126
2023 09 28 20  01 19 13.193   -02 48 02.46  .63376 1.6209 164.1 19.1 1740 126
2023 09 28 21  01 19 10.233   -02 48 39.27  .63375 1.6210 164.2 19.1 1757 126
2023 09 28 22  01 19 07.270   -02 49 16.06  .63374 1.6210 164.2 19.1 1773 126
2023 09 28 23  01 19 04.306   -02 49 52.84  .63374 1.6211 164.3 19.1 1790 126
2023 09 29 00  01 19 01.339   -02 50 29.62  .63373 1.6211 164.3 19.1 1807 126